GFSNE_850_spd_114.txt.gz
Wind_Speed
36 37 35 32 28 29 32 28 31 26 25 32 25 31 29 28 33 40 43 39 38 37 38 40 41 42 38 36 34 31 30 29 28 28 28 26 24 24
37 35 34 33 33 33 35 35 34 36 35 26 24 26 29 26 33 42 46 43 38 39 39 39 39 40 41 39 37 35 34 32 30 28 27 27 28 28
30 30 31 30 32 32 32 35 35 35 39 38 33 32 34 32 35 40 45 45 40 42 40 42 41 40 39 39 37 37 37 35 34 34 33 32 31 31
27 28 29 26 29 29 28 32 36 36 37 35 36 37 37 34 34 39 45 47 48 36 38 42 43 42 41 40 39 38 37 37 37 36 35 33 32 31
26 25 23 21 25 29 32 34 35 37 39 41 42 37 36 37 37 33 40 47 50 38 35 39 42 42 40 40 40 39 38 37 36 35 34 34 34 33
22 22 24 25 27 30 34 37 38 43 40 45 42 40 43 41 37 38 42 44 47 45 42 41 41 43 41 40 41 41 40 39 38 37 36 36 36 36
20 22 24 26 28 31 34 35 35 39 41 48 40 41 39 40 44 43 42 46 43 46 45 43 40 43 43 43 42 41 41 40 39 39 38 38 37 36
21 20 19 19 23 22 26 30 36 43 40 43 42 43 46 47 44 44 45 47 47 48 46 46 44 45 45 45 45 44 42 42 41 41 40 38 37 36
18 19 20 21 21 22 24 30 31 32 37 44 44 50 47 50 49 47 48 55 52 49 50 47 45 43 44 43 42 43 44 44 42 40 38 36 34 29
17 18 18 19 20 20 20 22 24 26 28 31 32 41 46 51 55 54 47 54 48 46 46 44 43 42 40 38 38 39 41 44 41 38 38 34 31 28
12 13 14 16 19 21 20 17 15 18 21 25 23 26 46 44 48 48 44 51 49 46 47 46 45 40 34 35 34 31 30 30 36 33 27 24 23 22
6 8 10 11 15 18 15 13 12 12 13 14 15 20 28 36 40 47 52 52 49 37 48 46 46 45 23 27 27 26 25 20 20 20 20 20 18 16
15 15 15 16 11 11 12 10 8 9 7 6 4 5 12 18 27 38 43 50 53 42 38 47 47 49 25 36 30 27 25 21 21 19 18 16 15 13
20 20 20 19 17 12 8 6 5 6 4 4 3 9 8 6 11 8 18 28 33 32 34 51 47 52 43 38 38 31 24 22 20 17 14 12 9 5
20 18 16 14 13 11 12 10 6 3 1 3 6 9 12 13 10 9 9 10 15 15 20 33 22 45 36 38 40 39 33 25 19 15 13 8 4 6
15 15 16 15 15 16 13 13 13 12 11 11 13 14 13 13 16 16 16 20 19 19 16 17 19 24 23 24 30 34 26 16 18 13 8 6 6 6
12 11 12 14 15 17 18 17 16 15 15 15 14 13 13 14 17 16 17 20 23 27 27 23 19 19 24 27 30 26 21 17 14 11 9 6 7 8
11 11 12 13 14 14 14 13 12 13 13 12 13 14 14 14 15 16 16 18 22 23 24 23 21 24 26 25 23 19 15 13 12 11 9 6 8 9
11 12 12 11 11 11 10 10 10 10 8 8 9 10 10 10 11 13 13 14 16 16 16 17 17 13 15 15 15 16 12 11 7 6 8 8 8 8
13 12 12 12 11 10 8 7 6 5 5 6 7 7 8 9 9 10 11 11 12 12 12 11 11 12 10 10 11 13 11 10 9 8 6 6 6 6
13 12 11 10 10 9 9 8 7 6 5 4 3 5 5 5 6 6 7 8 8 8 9 8 8 8 8 8 9 10 8 7 6 5 4 3 3 3
11 10 10 10 9 8 8 7 7 7 6 6 6 6 6 6 6 7 7 7 7 7 8 9 9 8 8 7 8 7 4 3 3 3 2 2 3 3
10 9 9 9 8 8 8 6 5 5 4 4 4 4 4 5 5 5 5 6 7 7 7 7 7 8 8 10 8 5 4 2 2 1 5 3 4 5

GFSNE_850_spd_117.txt.gz
Wind_Speed
38 37 33 33 34 33 30 29 27 25 23 22 23 26 32 25 25 27 25 31 36 42 39 38 42 44 42 39 38 36 34 32 33 33 32 30 28 27
36 34 34 35 32 32 29 30 30 30 29 25 24 23 24 29 26 22 24 28 34 41 41 41 42 45 46 43 42 39 38 35 33 32 32 31 30 29
36 33 31 33 32 32 34 34 32 32 35 39 31 27 26 30 32 30 27 28 35 43 44 44 45 43 47 49 47 44 42 39 37 35 33 32 31 32
33 29 33 28 31 31 31 33 33 33 35 36 35 33 32 34 34 32 32 30 33 40 46 46 44 46 47 49 48 49 45 43 40 38 37 36 36 35
31 30 27 27 28 29 29 30 27 26 28 31 38 34 30 29 35 34 32 34 33 36 43 51 47 47 48 47 47 46 47 45 43 42 42 42 41 41
25 25 21 21 21 21 24 26 27 29 32 31 31 40 37 41 38 39 37 37 39 36 42 51 49 45 46 49 48 47 46 46 45 44 44 43 42 42
25 23 23 23 25 29 31 32 34 34 32 30 35 37 37 37 39 35 40 39 40 42 41 48 52 49 46 51 51 51 49 48 47 46 45 43 42 42
22 22 23 25 27 28 24 26 28 30 33 35 39 36 40 39 46 43 40 41 41 44 45 49 54 53 49 47 51 50 49 48 48 47 45 44 43 44
19 19 19 20 19 22 22 23 24 26 31 33 35 37 38 28 39 46 45 46 47 44 46 52 54 51 51 46 47 47 48 47 45 46 47 46 46 46
8 10 14 17 19 21 21 20 21 21 21 23 25 27 32 37 39 39 49 48 49 42 47 49 50 46 44 42 44 48 48 48 48 48 49 49 46 46
6 4 4 6 11 14 14 17 17 17 18 19 21 25 29 29 27 34 38 42 45 48 44 48 47 41 36 36 37 45 46 45 50 48 44 48 43 42
14 13 15 14 12 9 10 12 13 14 15 15 16 19 20 21 22 25 29 44 50 41 45 45 43 45 25 30 33 32 35 33 35 42 37 38 36 32
21 20 20 20 17 15 12 9 10 11 13 13 13 12 13 11 11 14 21 29 37 43 40 48 48 50 31 36 32 29 29 28 29 29 28 26 26 26
24 22 20 18 17 15 15 14 13 12 10 9 8 8 9 9 7 5 9 19 27 35 34 42 47 52 45 38 40 33 29 29 28 26 24 23 23 21
18 17 16 15 16 16 15 14 12 11 10 9 10 10 10 9 9 6 2 6 12 18 19 30 33 44 33 36 40 43 39 29 23 21 20 19 18 17
16 14 13 13 14 16 15 15 16 16 15 15 15 13 11 8 7 8 6 4 5 11 13 20 22 20 36 25 35 43 37 23 25 20 18 17 15 14
14 13 14 14 14 15 15 14 13 13 14 14 12 12 13 13 12 10 9 12 14 14 14 10 12 19 21 24 32 35 32 20 23 20 17 15 13 12
16 17 18 16 17 16 15 14 14 12 12 11 12 11 11 11 11 12 12 14 18 21 22 20 18 19 25 28 32 31 26 23 23 21 17 13 10 11
15 15 17 18 18 17 16 14 13 13 11 11 11 10 11 10 9 10 10 10 14 16 19 20 18 20 27 27 23 22 21 18 16 14 12 13 12 9
17 16 15 15 15 15 14 15 14 12 11 12 10 10 9 8 8 9 8 8 9 10 11 12 13 13 15 19 18 17 14 13 12 10 9 8 10 11
15 14 14 14 14 13 14 11 13 12 13 12 10 11 11 9 8 8 7 7 6 6 8 9 10 9 7 9 14 15 12 8 8 11 11 9 7 5
14 13 13 12 11 12 12 12 10 11 10 9 11 9 8 8 7 7 7 6 6 5 6 6 6 7 8 5 10 11 11 9 8 8 8 8 9 9
14 13 12 13 12 11 10 9 10 7 7 8 8 7 9 6 6 5 5 5 5 5 5 6 6 7 8 8 8 6 7 6 4 3 5 4 6 7

GFSNE_850_spd_123.txt.gz
Wind_Speed
42 51 59 46 41 41 44 41 36 27 35 32 31 33 32 30 28 24 21 20 20 26 32 36 37 39 45 46 43 41 40 40 39 38 37 38 40 37
44 47 43 43 42 43 41 41 39 35 32 28 30 33 33 31 28 24 25 24 21 23 26 35 38 40 44 51 48 45 43 42 41 39 39 35 39 39
49 44 42 44 40 43 40 41 38 34 35 29 27 28 29 28 27 27 28 29 27 24 26 29 35 39 42 45 55 49 47 46 43 41 39 38 39 41
48 45 42 44 44 41 41 37 37 34 32 28 25 25 31 30 28 29 27 26 26 27 25 28 30 34 38 45 50 56 47 48 47 44 42 42 42 42
44 49 46 44 44 42 42 36 35 34 29 28 26 29 32 27 25 25 26 30 30 28 25 31 30 33 37 38 43 51 50 48 50 49 46 45 45 45
39 42 42 43 41 41 41 36 37 33 30 26 23 25 26 21 22 26 27 29 25 30 36 36 37 34 34 33 41 50 51 51 53 53 51 49 50 48
35 41 43 43 41 42 39 38 35 30 27 25 25 24 24 25 25 26 30 32 30 30 33 32 38 36 34 35 38 41 54 54 54 54 54 53 54 52
24 22 26 37 38 38 33 29 26 27 25 24 24 27 27 29 30 30 29 28 31 34 33 36 34 33 31 34 32 41 46 55 61 62 58 56 56 55
19 17 13 14 15 21 28 21 20 20 19 18 21 22 23 26 26 27 29 29 30 30 31 32 38 37 37 38 38 39 41 46 50 51 60 62 57 55
33 32 22 16 11 4 9 7 5 8 11 12 13 15 19 20 21 23 25 28 31 32 35 38 34 36 42 44 47 45 42 42 44 48 50 59 62 54
34 29 29 23 19 18 8 4 4 5 5 6 7 10 11 16 18 18 18 21 24 24 24 31 36 42 44 45 47 48 48 44 44 45 48 47 61 58
32 30 29 32 26 14 16 13 8 7 6 4 9 6 7 9 11 13 15 15 14 14 18 20 27 31 32 37 40 42 44 44 42 42 45 48 49 60
32 32 30 24 20 22 20 18 19 13 11 8 6 5 6 7 7 8 10 11 11 14 18 19 22 25 30 27 23 27 30 31 32 31 32 37 41 45
28 25 22 19 18 16 18 16 13 11 11 11 10 10 9 8 9 9 10 11 11 13 14 18 20 23 27 29 21 22 22 22 22 22 23 27 33 43
24 21 19 18 17 17 18 15 12 13 14 14 15 15 15 13 11 10 9 9 10 11 13 13 16 20 22 27 28 22 23 19 18 19 21 24 27 27
23 21 19 18 19 18 17 17 17 16 16 15 15 14 12 12 13 12 10 8 8 8 8 8 9 12 18 23 25 25 26 19 20 19 19 21 23 25
20 19 20 21 22 22 21 20 18 17 17 16 15 14 14 13 13 12 10 10 9 9 8 6 3 5 11 14 17 22 26 22 21 21 20 20 18 17
19 22 23 23 23 23 22 21 20 19 17 16 16 15 16 15 14 12 10 9 8 8 7 5 4 3 6 9 10 16 19 20 21 20 20 21 20 18
21 23 23 22 21 20 19 18 19 17 15 14 13 14 14 14 14 13 11 9 7 7 6 4 2 3 6 11 13 15 20 22 22 21 20 21 21 19
23 21 22 22 21 19 18 18 17 16 16 14 13 11 12 12 13 14 13 11 8 5 5 4 2 2 9 14 15 18 19 22 22 21 20 17 16 15
25 21 18 20 21 20 17 16 16 16 14 13 11 9 8 11 10 10 11 13 9 5 2 4 5 4 3 9 18 18 19 17 16 17 18 18 18 15
29 25 22 20 21 20 19 17 17 17 16 11 9 7 6 8 10 9 7 7 9 10 4 3 4 3 5 11 15 17 16 14 14 14 15 16 16 13
29 29 24 26 23 23 20 21 20 19 15 12 7 7 7 9 8 8 7 5 3 3 4 7 4 2 4 9 10 11 11 11 11 11 11 10 8 6

GFSNE_850_spd_126.txt.gz
Wind_Speed
42 37 31 31 50 38 37 44 41 30 39 39 38 35 33 35 33 26 27 25 24 23 24 27 30 33 35 37 39 41 41 41 41 39 39 39 39 39
35 32 32 35 55 46 44 43 48 45 37 45 43 39 34 32 31 26 27 26 26 25 23 26 27 33 35 38 38 40 45 46 44 42 40 39 39 40
35 34 38 38 52 37 53 43 42 44 46 42 30 28 37 33 28 24 25 28 30 28 26 27 26 25 32 39 41 40 46 51 52 47 44 42 41 41
31 34 37 39 50 46 42 54 50 49 46 45 40 33 28 25 26 25 23 29 33 31 28 26 26 26 27 30 35 41 46 48 57 55 50 45 44 43
28 32 40 42 32 36 42 50 51 45 42 44 38 34 30 30 28 28 25 27 34 33 27 27 28 27 28 29 31 36 40 45 53 54 55 49 48 46
23 30 29 32 44 44 45 49 48 44 41 40 41 34 32 32 30 29 30 29 30 28 29 32 29 29 33 34 36 36 38 41 44 52 56 55 52 49
21 23 25 26 44 43 44 45 45 39 39 35 36 37 35 32 27 28 27 26 26 28 32 33 34 32 31 31 32 35 37 38 38 42 43 56 53 54
11 12 13 24 28 26 38 39 42 39 38 35 35 31 28 26 25 27 28 30 29 35 37 36 33 34 31 32 32 34 36 35 34 37 42 56 56 57
24 20 15 10 8 7 10 8 21 27 32 38 32 30 27 27 28 30 30 31 34 34 28 31 31 32 32 32 32 30 30 31 34 35 36 42 56 59
37 34 31 25 21 17 10 4 12 9 10 6 19 22 23 22 23 23 23 27 28 31 32 36 38 39 35 33 35 36 36 38 39 39 39 39 43 45
38 36 33 30 25 20 17 16 13 12 11 7 7 1 4 12 14 15 18 19 20 20 21 22 33 32 32 35 37 40 42 42 42 44 43 42 41 43
34 33 35 30 24 22 23 19 15 16 14 11 9 8 5 7 9 10 11 13 12 13 15 13 18 18 13 24 29 32 34 34 35 35 38 38 38 40
32 32 29 25 24 25 22 19 20 15 13 11 10 9 9 8 7 7 8 8 10 12 16 16 16 17 17 21 23 26 29 31 31 31 29 30 29 27
31 28 25 22 22 20 19 17 14 12 13 14 12 13 12 12 12 10 9 10 11 12 13 16 17 18 20 23 25 26 25 25 25 25 24 23 21 18
26 23 21 21 20 18 17 14 13 15 15 14 16 17 16 16 14 12 11 10 10 12 14 15 17 18 21 22 24 25 24 23 21 19 18 16 15 15
23 21 20 20 19 18 18 18 18 17 17 16 16 16 15 15 15 15 13 11 9 10 11 12 12 14 15 17 20 22 21 15 13 14 13 11 11 12
21 20 22 23 23 23 22 20 19 18 17 16 16 16 16 15 16 16 15 14 14 15 13 12 11 9 10 12 14 16 18 18 14 12 11 11 11 12
22 26 28 28 27 25 23 21 20 19 18 18 16 16 15 15 16 15 15 15 15 15 15 14 12 10 8 6 7 7 10 12 13 13 13 14 15 14
27 27 26 25 25 24 23 22 21 19 17 15 15 14 14 13 15 17 16 16 13 12 13 14 13 11 10 7 4 6 8 12 14 14 14 15 17 17
31 29 27 26 25 23 22 22 22 19 17 15 14 13 12 13 14 15 17 17 16 12 10 10 10 9 6 4 4 5 10 12 14 15 15 13 14 15
32 30 28 27 24 23 22 19 20 20 19 17 12 12 12 12 12 12 13 14 15 14 11 9 9 7 5 5 6 8 10 11 11 13 14 16 18 16
32 30 29 29 26 25 24 23 21 21 20 16 13 12 11 12 13 13 12 14 12 13 12 9 8 8 5 6 8 10 12 11 12 11 13 14 16 12
29 29 29 29 26 26 27 26 22 20 20 18 15 12 12 11 11 12 12 12 12 11 11 9 10 7 4 5 8 10 10 10 11 13 13 11 10 8

GFSNE_850_spd_132.txt.gz
Wind_Speed
38 42 50 36 50 55 57 42 38 20 17 35 46 64 46 40 38 34 41 40 38 36 35 36 33 33 31 30 29 31 31 29 37 33 34 34 34 33
37 34 31 35 37 37 36 38 43 29 40 48 36 48 56 41 37 32 29 34 33 34 35 35 33 32 32 31 31 30 31 32 34 36 36 39 37 36
26 32 35 31 30 29 29 29 39 35 37 30 36 46 54 38 31 31 30 29 34 34 36 35 35 35 34 31 30 30 31 33 33 35 38 39 41 43
14 21 23 28 31 30 29 29 31 34 31 39 42 39 46 43 44 36 31 33 36 37 38 37 36 37 36 34 31 30 31 30 33 36 38 39 39 42
16 17 21 23 23 27 30 31 30 32 33 41 40 43 47 45 46 41 35 34 35 34 35 37 37 38 38 35 33 33 33 33 30 33 37 39 41 43
7 11 16 18 26 22 22 26 26 30 31 38 50 40 43 48 45 46 41 37 38 38 39 36 36 37 39 37 36 34 33 33 32 32 32 37 40 43
18 17 6 6 14 20 21 23 26 33 32 31 38 41 40 38 41 43 39 40 41 41 40 36 36 36 35 37 37 36 34 35 35 33 33 33 35 38
26 20 16 14 9 3 14 20 24 28 29 30 30 29 33 34 35 37 33 32 36 41 40 39 38 36 35 34 35 35 35 37 39 38 38 39 41 42
36 32 27 22 17 13 12 3 7 14 16 19 19 21 23 23 32 35 40 39 32 32 38 40 38 34 34 34 35 35 36 38 39 39 40 38 39 41
35 35 32 30 27 21 20 19 20 17 14 11 8 7 4 10 14 14 18 24 23 20 28 30 34 35 33 31 30 29 29 30 32 35 34 35 37 38
31 31 31 28 25 22 22 23 22 22 20 17 16 13 9 5 2 1 8 5 9 12 11 14 18 22 26 29 30 34 36 36 37 39 39 38 37 37
31 32 31 28 24 23 22 22 24 23 19 16 14 15 15 15 13 9 9 5 2 4 6 7 13 8 8 18 23 26 27 30 32 33 33 35 36 36
32 32 30 27 25 23 23 24 24 19 20 20 20 20 20 20 20 19 15 12 10 5 11 10 8 8 9 8 10 10 13 16 17 20 22 26 26 28
30 29 28 26 25 24 24 21 18 17 17 18 20 23 23 23 22 20 16 14 12 12 12 11 10 11 13 15 14 15 18 20 23 23 23 26 27 26
28 25 22 21 21 22 24 22 22 23 23 23 24 24 23 21 17 14 14 11 12 13 12 12 12 11 10 12 15 16 20 20 20 19 18 19 20 21
24 23 22 23 24 24 23 24 25 26 25 25 24 22 19 19 20 20 19 17 12 10 12 13 13 12 11 10 12 15 15 13 16 16 17 17 16 17
25 24 26 28 29 29 29 29 28 26 26 25 24 23 23 22 22 22 22 22 21 21 19 15 14 14 13 13 11 12 13 13 13 12 11 11 12 12
27 31 32 32 32 33 33 32 31 31 30 27 25 24 24 23 22 22 21 21 21 21 22 22 21 17 14 12 10 12 11 11 9 8 8 8 7 7
30 32 33 33 33 32 32 32 32 31 29 28 27 25 24 22 23 23 22 21 21 20 19 20 20 20 21 19 10 12 14 9 9 9 8 7 5 2
29 30 30 30 30 30 30 31 30 30 30 29 27 25 24 24 23 22 22 22 22 22 20 17 17 18 17 18 18 14 11 10 8 8 8 6 5 5
23 24 25 26 26 26 27 28 29 30 29 28 28 26 24 23 22 21 22 21 21 21 21 18 17 15 16 15 14 12 9 9 6 6 7 7 8 7
20 20 20 20 21 22 24 26 27 30 30 29 28 26 25 22 22 21 21 22 22 22 22 20 14 14 14 14 14 12 9 7 6 5 7 7 5 4
21 20 18 17 17 17 19 22 24 27 28 29 28 27 26 24 21 20 20 20 21 21 20 22 16 10 11 14 12 10 8 7 7 6 7 8 7 7